| time (UTC) | temp F | wind direction | speed MPH | gust MPH | rain 1hr in | rain 24hr in | rain mn in | humidity % | barometer mb |
| 20260504223010 | 42 | 201 | 5.0 | 11.0 | 0.00 | 0.32 | 0.19 | 83 | 1007.1 |
| 20260504222519 | 42 | 34 | 2.0 | 11.0 | 0.00 | 0.32 | 0.19 | 83 | 1007.0 |
| 20260504222010 | 42 | 235 | 4.0 | 13.0 | 0.00 | 0.32 | 0.19 | 82 | 1006.9 |
| 20260504221518 | 42 | 280 | 4.0 | 14.0 | 0.00 | 0.32 | 0.19 | 82 | 1006.8 |
| 20260504221010 | 42 | 309 | 3.0 | 14.0 | 0.00 | 0.32 | 0.19 | 82 | 1006.7 |
| 20260504220517 | 42 | 39 | 5.0 | 13.0 | 0.00 | 0.32 | 0.19 | 81 | 1006.6 |
| 20260504220015 | 43 | 231 | 4.0 | 11.0 | 0.00 | 0.32 | 0.19 | 81 | 1006.6 |
| 20260504214017 | 44 | 208 | 4.0 | 15.0 | 0.00 | 0.35 | 0.19 | 78 | 1006.3 |
| 20260504213510 | 44 | 273 | 4.0 | 15.0 | 0.00 | 0.35 | 0.19 | 77 | 1006.4 |
| 20260504213022 | 44 | 231 | 6.0 | 16.0 | 0.00 | 0.35 | 0.19 | 77 | 1006.5 |
| 20260504212511 | 45 | 127 | 5.0 | 16.0 | 0.00 | 0.35 | 0.19 | 76 | 1006.5 |
| 20260504210518 | 45 | 290 | 4.0 | 22.0 | 0.00 | 0.35 | 0.19 | 76 | 1006.3 |
| 20260504210010 | 45 | 205 | 6.0 | 22.0 | 0.00 | 0.35 | 0.19 | 75 | 1006.3 |
| 20260504205517 | 45 | 357 | 4.0 | 14.0 | 0.00 | 0.41 | 0.19 | 75 | 1006.2 |
| 20260504205015 | 46 | 209 | 6.0 | 17.0 | 0.00 | 0.41 | 0.19 | 75 | 1006.2 |
| 20260504204518 | 45 | 305 | 7.0 | 17.0 | 0.00 | 0.41 | 0.19 | 75 | 1006.1 |
| 20260504204021 | 46 | 295 | 6.0 | 14.0 | 0.00 | 0.41 | 0.19 | 74 | 1006.0 |
| 20260504202010 | 47 | 270 | 6.0 | 15.0 | 0.00 | 0.41 | 0.19 | 72 | 1005.8 |
| 20260504201523 | 47 | 249 | 5.0 | 19.0 | 0.00 | 0.41 | 0.19 | 71 | 1005.7 |
| 20260504201010 | 48 | 276 | 7.0 | 19.0 | 0.00 | 0.41 | 0.19 | 70 | 1005.5 |
| 20260504200518 | 48 | 189 | 5.0 | 14.0 | 0.00 | 0.41 | 0.19 | 70 | 1005.4 |
| 20260504200011 | 48 | 169 | 4.0 | 14.0 | 0.00 | 0.41 | 0.19 | 69 | 1005.3 |
| 20260504195518 | 48 | 278 | 5.0 | 14.0 | 0.00 | 0.55 | 0.19 | 69 | 1005.3 |
| 20260504195021 | 48 | 223 | 4.0 | 17.0 | 0.00 | 0.55 | 0.19 | 68 | 1005.2 |
| 20260504194518 | 49 | 225 | 7.0 | 17.0 | 0.00 | 0.55 | 0.19 | 67 | 1005.0 |
| 20260504194011 | 49 | 334 | 4.0 | 12.0 | 0.00 | 0.55 | 0.19 | 67 | 1005.0 |
| 20260504193522 | 49 | 13 | 4.0 | 14.0 | 0.00 | 0.55 | 0.19 | 69 | 1004.9 |
| 20260504193011 | 49 | 224 | 6.0 | 14.0 | 0.00 | 0.55 | 0.19 | 68 | 1004.9 |
| 20260504191017 | 49 | 263 | 5.0 | 18.0 | 0.00 | 0.55 | 0.19 | 69 | 1004.8 |
| 20260504190521 | 49 | 251 | 6.0 | 15.0 | 0.00 | 0.55 | 0.19 | 67 | 1004.7 |
| 20260504190023 | 49 | 236 | 6.0 | 16.0 | 0.00 | 0.55 | 0.19 | 67 | 1004.7 |
| 20260504185521 | 50 | 215 | 6.0 | 14.0 | 0.00 | 0.64 | 0.19 | 66 | 1004.7 |
| 20260504185017 | 50 | 217 | 5.0 | 16.0 | 0.00 | 0.64 | 0.19 | 68 | 1004.6 |
| 20260504184510 | 48 | 200 | 6.0 | 16.0 | 0.00 | 0.64 | 0.19 | 67 | 1004.5 |
| 20260504183010 | 50 | 27 | 5.0 | 17.0 | 0.00 | 0.64 | 0.19 | 64 | 1004.5 |
| 20260504182518 | 51 | 270 | 7.0 | 17.0 | 0.00 | 0.64 | 0.19 | 62 | 1004.4 |
| 20260504182010 | 52 | 241 | 10.0 | 17.0 | 0.00 | 0.64 | 0.19 | 56 | 1004.3 |
| 20260504181518 | 55 | 248 | 6.0 | 18.0 | 0.00 | 0.64 | 0.19 | 54 | 1004.2 |
| 20260504181021 | 59 | 255 | 8.0 | 18.0 | 0.00 | 0.64 | 0.19 | 43 | 1004.4 |
| 20260504180529 | 60 | 243 | 5.0 | 15.0 | 0.00 | 0.64 | 0.19 | 37 | 1004.1 |
| 20260504180010 | 60 | 278 | 7.0 | 19.0 | 0.00 | 0.64 | 0.19 | 36 | 1004.1 |
| 20260504174011 | 59 | 205 | 4.0 | 16.0 | 0.00 | 0.73 | 0.19 | 37 | 1004.0 |
| 20260504173518 | 58 | 307 | 7.0 | 18.0 | 0.00 | 0.73 | 0.19 | 37 | 1004.1 |
| 20260504173022 | 58 | 311 | 7.0 | 19.0 | 0.00 | 0.73 | 0.19 | 37 | 1004.1 |
| 20260504172518 | 58 | 169 | 9.0 | 19.0 | 0.00 | 0.73 | 0.19 | 36 | 1004.1 |
| 20260504172011 | 58 | 278 | 5.0 | 18.0 | 0.00 | 0.73 | 0.19 | 38 | 1004.1 |
| 20260504171519 | 57 | 270 | 6.0 | 18.0 | 0.00 | 0.73 | 0.19 | 38 | 1003.9 |
| 20260504171011 | 57 | 281 | 7.0 | 27.0 | 0.00 | 0.73 | 0.19 | 37 | 1003.9 |
| 20260504151019 | 54 | 278 | 5.0 | 23.0 | 0.00 | 0.82 | 0.19 | 62 | 1003.4 |
| 20260504150516 | 53 | 321 | 7.0 | 23.0 | 0.00 | 0.82 | 0.19 | 63 | 1003.2 |
| 20260504141019 | 50 | 315 | 6.0 | 15.0 | 0.00 | 0.82 | 0.19 | 72 | 1002.8 |
| 20260504140511 | 50 | 340 | 5.0 | 14.0 | 0.00 | 0.82 | 0.19 | 73 | 1002.8 |
| 20260504130511 | 44 | 338 | 6.0 | 14.0 | 0.00 | 0.82 | 0.19 | 84 | 1002.0 |
| 20260504110511 | 41 | 240 | 5.0 | 13.0 | 0.00 | 0.82 | 0.19 | 93 | 999.4 |
| 20260504100512 | 40 | 228 | 6.0 | 17.0 | 0.00 | 0.82 | 0.19 | 95 | 997.7 |
| 20260504081520 | 37 | 270 | 6.0 | 17.0 | 0.01 | 0.81 | 0.18 | 95 | 995.0 |
| 20260504081019 | 37 | 218 | 5.0 | 17.0 | 0.01 | 0.81 | 0.18 | 95 | 994.9 |
| 20260504080511 | 37 | 295 | 6.0 | 17.0 | 0.01 | 0.81 | 0.18 | 95 | 994.7 |
| 20260504050517 | 35 | 300 | 5.0 | 13.0 | 0.02 | 0.67 | 0.04 | 94 | 989.2 |
| 20260504050020 | 35 | 239 | 4.0 | 17.0 | 0.01 | 0.66 | 0.03 | 94 | 989.1 |
| 20260504045518 | 35 | 219 | 5.0 | 17.0 | 0.01 | 0.66 | 0.03 | 94 | 988.8 |
| 20260504045011 | 35 | 260 | 3.0 | 13.0 | 0.01 | 0.66 | 0.03 | 94 | 988.6 |
| 20260504044519 | 35 | 277 | 6.0 | 13.0 | 0.01 | 0.66 | 0.03 | 94 | 988.5 |
| 20260504044018 | 35 | 237 | 4.0 | 15.0 | 0.01 | 0.66 | 0.03 | 94 | 988.4 |
| 20260504043523 | 35 | 316 | 7.0 | 15.0 | 0.02 | 0.66 | 0.03 | 94 | 988.1 |
| 20260504043019 | 35 | 259 | 6.0 | 18.0 | 0.02 | 0.66 | 0.03 | 94 | 988.0 |
| 20260504042512 | 35 | 260 | 6.0 | 18.0 | 0.02 | 0.66 | 0.03 | 94 | 987.8 |
| 20260504042024 | 35 | 269 | 6.0 | 19.0 | 0.01 | 0.65 | 0.02 | 94 | 987.8 |
| 20260504041518 | 35 | 232 | 5.0 | 18.0 | 0.02 | 0.65 | 0.02 | 94 | 987.5 |
| 20260504041012 | 35 | 280 | 4.0 | 16.0 | 0.02 | 0.65 | 0.02 | 94 | 987.3 |
| 20260504040519 | 35 | 269 | 6.0 | 16.0 | 0.02 | 0.65 | 0.02 | 94 | 987.2 |
| 20260504040018 | 36 | 263 | 6.0 | 16.0 | 0.02 | 0.65 | 0.02 | 94 | 987.2 |
| 20260504035523 | 36 | 243 | 6.0 | 16.0 | 0.02 | 0.65 | 0.02 | 94 | 987.0 |
| 20260504035030 | 36 | 272 | 5.0 | 16.0 | 0.02 | 0.65 | 0.02 | 94 | 986.7 |
| 20260504034519 | 36 | 276 | 5.0 | 14.0 | 0.02 | 0.65 | 0.02 | 94 | 986.4 |
| 20260504034012 | 37 | 250 | 5.0 | 14.0 | 0.01 | 0.64 | 0.01 | 94 | 986.2 |
| 20260504033519 | 37 | 229 | 4.0 | 16.0 | 0.01 | 0.64 | 0.01 | 94 | 986.1 |
| 20260504033019 | 37 | 252 | 7.0 | 16.0 | 0.01 | 0.64 | 0.01 | 94 | 985.9 |
| 20260504032513 | 37 | 323 | 4.0 | 13.0 | 0.01 | 0.64 | 0.01 | 94 | 985.7 |
| 20260504032030 | 38 | 262 | 6.0 | 13.0 | 0.00 | 0.63 | 0.00 | 94 | 985.3 |
| 20260504031518 | 38 | 231 | 5.0 | 13.0 | 0.00 | 0.63 | 0.00 | 94 | 985.2 |
| 20260504031011 | 38 | 288 | 5.0 | 14.0 | 0.00 | 0.63 | 0.00 | 94 | 985.0 |
| 20260504030519 | 38 | 295 | 5.0 | 14.0 | 0.00 | 0.63 | 0.00 | 94 | 984.8 |
| 20260504030019 | 39 | 281 | 4.0 | 12.0 | 0.00 | 0.63 | 0.00 | 94 | 984.6 |
| 20260504025512 | 39 | 289 | 5.0 | 12.0 | 0.00 | 0.63 | 0.63 | 94 | 984.3 |
| 20260504025019 | 39 | 300 | 5.0 | 14.0 | 0.01 | 0.63 | 0.63 | 94 | 984.0 |
| 20260504024512 | 39 | 286 | 6.0 | 18.0 | 0.01 | 0.63 | 0.63 | 94 | 983.7 |
| 20260504024019 | 39 | 320 | 5.0 | 18.0 | 0.01 | 0.63 | 0.63 | 94 | 983.4 |
| 20260504023512 | 39 | 331 | 7.0 | 18.0 | 0.02 | 0.63 | 0.63 | 94 | 983.0 |
| 20260504023019 | 39 | 266 | 8.0 | 19.0 | 0.02 | 0.63 | 0.63 | 94 | 982.8 |
| 20260504022529 | 39 | 316 | 6.0 | 19.0 | 0.02 | 0.63 | 0.63 | 94 | 982.6 |
| 20260504022012 | 39 | 294 | 10.0 | 19.0 | 0.02 | 0.63 | 0.63 | 94 | 982.2 |
| 20260504021530 | 39 | 325 | 8.0 | 17.0 | 0.02 | 0.63 | 0.63 | 94 | 982.0 |
| 20260504021019 | 39 | 302 | 7.0 | 27.0 | 0.03 | 0.63 | 0.63 | 95 | 981.7 |
| 20260504020523 | 39 | 300 | 9.0 | 27.0 | 0.03 | 0.63 | 0.63 | 94 | 981.6 |
| 20260504020019 | 39 | 269 | 10.0 | 20.0 | 0.03 | 0.63 | 0.63 | 94 | 981.4 |
| 20260504015518 | 39 | 302 | 10.0 | 21.0 | 0.03 | 0.62 | 0.62 | 94 | 981.4 |
| 20260504015012 | 39 | 317 | 13.0 | 21.0 | 0.03 | 0.62 | 0.62 | 94 | 981.1 |
| 20260504014531 | 39 | 310 | 11.0 | 21.0 | 0.03 | 0.62 | 0.62 | 94 | 981.2 |
| 20260504014019 | 39 | 299 | 11.0 | 21.0 | 0.03 | 0.62 | 0.62 | 94 | 981.0 |
| 20260504013512 | 39 | 338 | 11.0 | 19.0 | 0.02 | 0.61 | 0.61 | 94 | 980.8 |
| 20260504013019 | 39 | 323 | 11.0 | 21.0 | 0.02 | 0.61 | 0.61 | 94 | 980.4 |
| 20260504012530 | 39 | 349 | 12.0 | 26.0 | 0.02 | 0.61 | 0.61 | 94 | 980.1 |
| 20260504012011 | 39 | 341 | 13.0 | 24.0 | 0.03 | 0.61 | 0.61 | 94 | 980.0 |
| 20260504011520 | 40 | 328 | 9.0 | 22.0 | 0.03 | 0.61 | 0.61 | 94 | 979.6 |
| 20260504011024 | 40 | 316 | 11.0 | 22.0 | 0.02 | 0.60 | 0.60 | 94 | 979.5 |
| 20260504010511 | 40 | 345 | 14.0 | 22.0 | 0.03 | 0.60 | 0.60 | 94 | 979.3 |
| 20260504010019 | 40 | 318 | 8.0 | 16.0 | 0.02 | 0.59 | 0.59 | 94 | 979.2 |
| 20260504005529 | 40 | 308 | 9.0 | 17.0 | 0.02 | 0.59 | 0.59 | 94 | 978.9 |
| 20260504005012 | 40 | 305 | 9.0 | 19.0 | 0.03 | 0.59 | 0.59 | 94 | 978.3 |
| 20260504004519 | 40 | 296 | 13.0 | 21.0 | 0.03 | 0.59 | 0.59 | 94 | 978.2 |
| 20260504004018 | 40 | 23 | 11.0 | 21.0 | 0.04 | 0.59 | 0.59 | 94 | 977.9 |
| 20260504003512 | 40 | 319 | 12.0 | 26.0 | 0.05 | 0.59 | 0.59 | 94 | 977.8 |
| 20260504003019 | 40 | 351 | 11.0 | 26.0 | 0.05 | 0.59 | 0.59 | 94 | 977.7 |
| 20260504002519 | 40 | 255 | 10.0 | 22.0 | 0.04 | 0.58 | 0.58 | 94 | 977.3 |
| 20260504002023 | 41 | 314 | 9.0 | 21.0 | 0.05 | 0.58 | 0.58 | 94 | 977.3 |
| 20260504001531 | 42 | 314 | 6.0 | 15.0 | 0.05 | 0.58 | 0.58 | 95 | 977.2 |
| 20260504001019 | 42 | 359 | 7.0 | 15.0 | 0.04 | 0.57 | 0.57 | 95 | 977.2 |
| 20260504000512 | 42 | 338 | 4.0 | 13.0 | 0.04 | 0.57 | 0.57 | 95 | 977.2 |
| 20260504000020 | 42 | 61 | 6.0 | 13.0 | 0.04 | 0.57 | 0.57 | 95 | 977.4 |
| 20260503235518 | 42 | 45 | 6.0 | 17.0 | 0.03 | 0.56 | 0.56 | 95 | 977.1 |
| 20260503235012 | 42 | 79 | 8.0 | 17.0 | 0.03 | 0.56 | 0.56 | 95 | 977.5 |
| 20260503234524 | 42 | 31 | 8.0 | 14.0 | 0.02 | 0.55 | 0.55 | 95 | 977.6 |
| 20260503234018 | 42 | 1 | 7.0 | 17.0 | 0.03 | 0.55 | 0.55 | 95 | 977.7 |
| 20260503233523 | 41 | 75 | 9.0 | 18.0 | 0.02 | 0.54 | 0.54 | 95 | 978.1 |
| 20260503233019 | 41 | 32 | 7.0 | 18.0 | 0.02 | 0.54 | 0.54 | 94 | 978.4 |
| 20260503232519 | 41 | 128 | 10.0 | 18.0 | 0.03 | 0.54 | 0.54 | 94 | 978.3 |
| 20260503232012 | 41 | 63 | 11.0 | 22.0 | 0.02 | 0.53 | 0.53 | 94 | 978.5 |
| 20260503231520 | 41 | 84 | 12.0 | 25.0 | 0.02 | 0.53 | 0.53 | 94 | 978.4 |
| 20260503231018 | 40 | 84 | 16.0 | 26.0 | 0.02 | 0.53 | 0.53 | 94 | 978.5 |
| 20260503230512 | 40 | 78 | 16.0 | 26.0 | 0.03 | 0.53 | 0.53 | 94 | 978.6 |
| 20260503230022 | 40 | 44 | 15.0 | 30.0 | 0.03 | 0.53 | 0.53 | 94 | 978.8 |
| 20260503225530 | 40 | 50 | 19.0 | 31.0 | 0.03 | 0.53 | 0.53 | 94 | 978.8 |
| 20260503225012 | 40 | 81 | 18.0 | 34.0 | 0.03 | 0.53 | 0.53 | 94 | 979.1 |
| 20260503224520 | 40 | 113 | 18.0 | 34.0 | 0.03 | 0.53 | 0.53 | 94 | 979.4 |
| 20260503224018 | 40 | 77 | 19.0 | 31.0 | 0.02 | 0.52 | 0.52 | 94 | 979.5 |
| 20260503223512 | 40 | 81 | 17.0 | 34.0 | 0.03 | 0.52 | 0.52 | 94 | 979.7 |